Home > Weather > Foz do Iguaçu > Past weeks

Flag for Brazil Past Weather in Foz do Iguaçu, Paraná, Brazil — Yesterday and Last 2 Weeks

Now
63 °F

Sunny.


Feels Like: 63 °F
Forecast: 51 / 78 °F
Wind: 12 mph from East

Location: Foz Do Iguacu Aeroporto

Current Time: Jul 29, 2016 at 11:15:12 AM

Latest Report: Jul 29, 2016 at 10:00 AM


Visibility: 10 mi

Pressure: 30.12 "Hg

Humidity: 77%

Dew Point: 55 °F

Location of Foz do IguaçuLocation

Past Weather in Foz do Iguaçu — Graph

°F

Foz do Iguaçu Temperature Yesterday

Maximum temperature yesterday: 68 °F (at 2:00 PM)
Minimum temperature yesterday: 41 °F (at 5:00 AM)
Average temperature yesterday: 53 °F

High & Low Weather Summary for the Past Weeks

 TemperatureHumidityPressure
High86 °F (Jul 14, 2:00 PM)100% (Jul 15, 12:00 AM)30.30 "Hg (Jul 15, 12:00 AM)
Low36 °F (Jul 17, 7:00 AM)33% (Jul 24, 4:00 PM)29.74 "Hg (Jul 14, 3:00 PM)
Average58 °F80%30.08 "Hg
* Reported Jul 14 10:00 AM — Jul 29 10:00 AM, Foz do Iguaçu, Weather by CustomWeather, © 2016

Note: Actual official high and low records may vary slightly from our data, if they occured in-between our weather recording intervals... More about our weather records

Advertising

Foz do Iguaçu Weather History for the Previous 24 Hours

Scroll right to see more
 ConditionsComfort  
Time TempWeatherWind HumidityBarometerVisibility
10:00 AM
Fri, Jul 29
63 °FSunny.12 mph77%30.12 "Hg10 mi
9:00 AM61 °FSunny.12 mph77%30.12 "Hg10 mi
8:00 AM59 °FSunny.9 mph82%30.09 "Hg10 mi
7:00 AM59 °FSunny.7 mph82%30.09 "Hg10 mi
6:00 AM57 °FClear.5 mph94%30.07 "Hg10 mi
5:00 AM55 °FClear.3 mph100%30.07 "Hg10 mi
4:00 AM57 °FClear.2 mph94%30.09 "Hg10 mi
3:00 AM57 °FClear.5 mph94%30.07 "Hg10 mi
2:00 AM55 °FClear.1 mph100%30.09 "Hg10 mi
1:00 AM55 °FClear.2 mph100%30.09 "Hg10 mi
12:00 AM57 °FClear.2 mph100%30.09 "Hg10 mi
11:00 PM
Thu, Jul 28
57 °FClear.3 mph94%30.12 "Hg10 mi
10:00 PM55 °FClear.2 mph100%30.12 "Hg10 mi
9:00 PM57 °FClear.2 mph94%30.09 "Hg10 mi
8:00 PM57 °FClear.2 mph82%30.09 "Hg10 mi
7:00 PM57 °FClear.2 mph88%30.09 "Hg10 mi
6:00 PM61 °FClear.1 mph77%30.09 "Hg10 mi
5:00 PM64 °FSunny.2 mph68%30.09 "Hg10 mi
4:00 PM68 °FSunny.2 mph56%30.09 "Hg10 mi
3:00 PM68 °FSunny.2 mph53%30.09 "Hg10 mi
2:00 PM68 °FSunny.5 mph53%30.12 "Hg10 mi
1:00 PM64 °FSunny.7 mph60%30.12 "Hg10 mi
12:00 PM61 °FSunny.9 mph63%30.15 "Hg10 mi
11:00 AM57 °FSunny.8 mph72%30.18 "Hg10 mi
Weather by CustomWeather, © 2016

See weather overviewHow to use our weather pages